sat.trackr.live / text

‹ back to catalog

CENTISPACE-1 S15

NORAD 62584 · 2025-007K

PAYLOAD ACTIVE UNKNOWN

§ Identity

Operator
Country
PRC
Launch date
2025-01-13
Launch site
YSLA
Launch vehicle
Mass (kg)
RCS (m²)

External: N2YO · Heavens-Above · Gunter

§ Orbital elements

Epoch: 2026-05-25T04:01:55.793568Z

Period
104.30 min
Inclination
54.9879°
Eccentricity
0.0014573
Mean motion
13.80608686 rev/d
Perigee alt
951.0 km
Apogee alt
972.4 km
Semi-major
7,339.9 km
B*
1.0172e-4
RAAN
13.0587°
Arg perigee
37.1491°
Mean anomaly
323.0471°
Rev number
7,155

§ Raw data

CENTISPACE-1 S151 62584U 25007K   26145.16800687 -.00000033  00000+0  10172-3 0  99932 62584  54.9879  13.0587 0014573  37.1491 323.0471 13.80608686 71552

JSON: /api/v1/satellites/62584 · /tle

For live sub-satellite position, see the globe view (requires WebGL).

§ Visibility from observer

Set your observer location to see the next 7 days of passes ≥ 10°. The values pass through the URL so the page stays shareable.

No JS? Fill the form by hand. The geolocation button needs JavaScript.